Location: Unspecified
(0.0000°N, 0.0000°E)
Time: 00:03:31
(UTC+00:00)

Explorer 25 - Pass Details

Date: 06 March 2026
Orbit: 523 x 2264 km, 81.3° (Epoch: 14 April)

Event Time Altitude Azimuth Distance (km) Brightness Sun altitude
Rises 19:11:59 0° 184° (S) 5,838 12.6 -15.1°
Reaches altitude 10° 19:15:37 10° 183° (S) 4,824 12.2 -16.0°
Maximum altitude 19:28:34 88° 95° (E) 2,026 10.0 -19.3°
Drops below altitude 10° 19:38:42 10° 5° (N) 3,854 11.5 -21.8°
Sets 19:41:18 0° 5° (N) 4,639 11.9 -22.4°
